Radiation Dose measured at exhaust stack monitor of Fukushima Daiichi Nuclear Power Station
Date,Time,Unit 5 6 shared exhaust cylinders,Wind Direction,Wind Velocity(m/s)
2023/09/03,00:00,3.6,west-southwest,1.1
2023/09/03,00:10,3.6,west,0.8
2023/09/03,00:20,3.7,-,CALM
2023/09/03,00:30,3.5,-,CALM
2023/09/03,00:40,3.5,east-northeast,0.6
2023/09/03,00:50,3.7,south-southeast,1.2
2023/09/03,01:00,3.7,south-southeast,1.5
2023/09/03,01:10,3.7,south-southwest,0.8
2023/09/03,01:20,3.8,south,0.6
2023/09/03,01:30,3.6,south-southeast,0.9
2023/09/03,01:40,3.8,-,CALM
2023/09/03,01:50,3.6,-,CALM
2023/09/03,02:00,3.5,west-northwest,0.9
2023/09/03,02:10,3.6,northwest,0.8
2023/09/03,02:20,3.6,northwest,1.4
2023/09/03,02:30,3.7,north-northwest,2.0
2023/09/03,02:40,3.6,north-northwest,2.0
2023/09/03,02:50,3.5,north-northwest,1.7
2023/09/03,03:00,3.8,north-northwest,2.3
2023/09/03,03:10,3.5,north-northwest,2.6
2023/09/03,03:20,3.6,north-northwest,2.3
2023/09/03,03:30,3.5,north-northwest,2.3
2023/09/03,03:40,3.7,north-northwest,2.6
2023/09/03,03:50,3.7,north,3.0
2023/09/03,04:00,3.6,north-northwest,3.6
2023/09/03,04:10,3.6,north,3.2
2023/09/03,04:20,3.8,north-northwest,2.9
2023/09/03,04:30,3.6,north-northwest,3.2
2023/09/03,04:40,3.5,north-northwest,3.5
2023/09/03,04:50,3.8,north-northwest,3.2
2023/09/03,05:00,3.7,north-northwest,3.4
2023/09/03,05:10,3.7,north-northwest,3.4
2023/09/03,05:20,3.5,north-northwest,3.5
2023/09/03,05:30,3.6,north-northwest,3.3
2023/09/03,05:40,3.7,north-northwest,3.4
2023/09/03,05:50,3.7,north-northwest,3.8
2023/09/03,06:00,3.6,north-northwest,5.1
2023/09/03,06:10,3.6,north-northwest,3.7
2023/09/03,06:20,3.5,north-northwest,2.9
2023/09/03,06:30,3.8,north-northwest,1.9
2023/09/03,06:40,3.6,north,1.5
2023/09/03,06:50,3.6,northeast,2.0
2023/09/03,07:00,3.8,east-northeast,1.7
2023/09/03,07:10,3.7,east-northeast,1.1
2023/09/03,07:20,3.6,north-northeast,1.7
2023/09/03,07:30,3.5,north-northeast,1.7
2023/09/03,07:40,3.6,north,1.5
2023/09/03,07:50,3.5,north,2.2
2023/09/03,08:00,3.6,north,2.0
2023/09/03,08:10,3.7,east-northeast,2.0
2023/09/03,08:20,3.7,north,2.2
2023/09/03,08:30,3.6,north-northeast,2.0
2023/09/03,08:40,3.6,north-northeast,3.1
2023/09/03,08:50,3.5,north-northeast,2.5
2023/09/03,09:00,3.5,northeast,2.5
2023/09/03,09:10,3.7,north-northeast,3.1
2023/09/03,09:20,3.6,north-northeast,3.7
2023/09/03,09:30,3.5,north-northeast,3.2
2023/09/03,09:40,3.7,northeast,2.5
2023/09/03,09:50,3.4,northeast,2.5
2023/09/03,10:00,3.6,northeast,3.4
2023/09/03,10:10,3.7,northeast,3.2
2023/09/03,10:20,3.7,east-northeast,3.5
2023/09/03,10:30,3.5,east,3.2
2023/09/03,10:40,3.5,east-northeast,2.0
2023/09/03,10:50,3.6,east-northeast,3.6
2023/09/03,11:00,3.5,northeast,3.3
2023/09/03,11:10,3.7,east-northeast,2.9
2023/09/03,11:20,3.4,northeast,2.6
2023/09/03,11:30,3.7,east-northeast,2.6
2023/09/03,11:40,3.6,northeast,2.3
2023/09/03,11:50,3.6,east-northeast,2.3
2023/09/03,12:00,3.7,east-northeast,2.9
2023/09/03,12:10,3.5,east-northeast,2.6
2023/09/03,12:20,3.7,east-northeast,2.5
2023/09/03,12:30,3.6,northeast,2.6
2023/09/03,12:40,3.7,north-northeast,2.8
2023/09/03,12:50,3.7,north-northeast,2.3
2023/09/03,13:00,3.6,north-northeast,3.5
2023/09/03,13:10,3.7,north-northeast,3.5
2023/09/03,13:20,3.7,north-northeast,3.4
2023/09/03,13:30,3.6,north-northeast,3.7
2023/09/03,13:40,3.7,northeast,3.0
2023/09/03,13:50,3.8,north-northeast,3.5
2023/09/03,14:00,3.7,northeast,3.8
2023/09/03,14:10,3.7,north-northeast,3.7
2023/09/03,14:20,3.7,north-northeast,4.8
2023/09/03,14:30,3.6,north-northeast,4.0
2023/09/03,14:40,3.5,north-northeast,3.5
2023/09/03,14:50,3.7,north-northeast,4.4
2023/09/03,15:00,3.6,north-northeast,3.4
2023/09/03,15:10,3.5,north-northeast,3.6
2023/09/03,15:20,3.7,north-northeast,3.5
2023/09/03,15:30,3.6,north-northeast,3.4
2023/09/03,15:40,3.6,north-northeast,3.1
2023/09/03,15:50,3.7,north-northeast,2.9
2023/09/03,16:00,3.6,north-northeast,3.1
2023/09/03,16:10,3.6,north-northeast,2.6
2023/09/03,16:20,3.7,north-northeast,3.3
2023/09/03,16:30,3.6,north-northeast,3.3
2023/09/03,16:40,3.5,north-northeast,3.4
2023/09/03,16:50,3.6,north-northeast,3.6
2023/09/03,17:00,3.8,north-northeast,3.1
2023/09/03,17:10,3.6,north-northeast,3.1
2023/09/03,17:20,3.5,northeast,3.3
2023/09/03,17:30,3.6,northeast,3.1
2023/09/03,17:40,3.5,north-northeast,3.5
2023/09/03,17:50,3.7,northeast,3.3
2023/09/03,18:00,3.7,north-northeast,3.2
2023/09/03,18:10,3.6,northeast,3.4
2023/09/03,18:20,3.6,north-northeast,2.0
2023/09/03,18:30,3.8,north-northeast,2.3
2023/09/03,18:40,3.6,north,2.3
2023/09/03,18:50,3.5,north,2.6
2023/09/03,19:00,3.6,north,2.0
2023/09/03,19:10,3.6,north-northwest,2.3
2023/09/03,19:20,3.5,north-northwest,2.2
2023/09/03,19:30,3.6,north-northwest,3.2
2023/09/03,19:40,3.5,north-northwest,1.7
2023/09/03,19:50,3.9,north-northwest,3.0
2023/09/03,20:00,3.6,north,1.2
2023/09/03,20:10,3.7,north-northwest,2.2
2023/09/03,20:20,3.5,north-northwest,2.6
2023/09/03,20:30,3.6,north,2.6
2023/09/03,20:40,3.8,north-northwest,2.3
2023/09/03,20:50,3.5,north-northwest,2.6
2023/09/03,21:00,3.7,north-northwest,3.2
2023/09/03,21:10,3.6,north-northwest,2.2
2023/09/03,21:20,3.6,north-northwest,1.9
2023/09/03,21:30,3.6,north-northwest,1.9
2023/09/03,21:40,3.7,north,1.7
2023/09/03,21:50,3.6,north-northwest,1.2
2023/09/03,22:00,3.6,northwest,2.0
2023/09/03,22:10,3.8,north,1.7
2023/09/03,22:20,3.7,north-northwest,2.0
2023/09/03,22:30,3.6,north-northwest,1.7
2023/09/03,22:40,3.8,north-northwest,1.9
2023/09/03,22:50,3.7,north-northwest,2.3
2023/09/03,23:00,3.6,north-northwest,2.6
2023/09/03,23:10,3.7,north-northwest,3.1
2023/09/03,23:20,3.7,north-northwest,3.3
2023/09/03,23:30,3.6,north-northwest,3.1
2023/09/03,23:40,3.4,north-northwest,3.4
2023/09/03,23:50,3.6,north-northwest,3.4
